[[{"header":{"parameterUnit":"m.s-1","parameterCategory":1,"la1":30.2991,"la2":30.254,"lo1":-89.0895,"lo2":-89.0444,"dy":0.0017,"dx":0.0017,"nx":28,"ny":28,"refTime":"2025-05-30T03:00:00:Z","depth":0,"parameterNumber":2,"parameterNumberName":"U-component_of_WINDS"},"data":[0,0,0,0,0,0,0,0,0,0,0,0,0,0,0,0,0,0,0,0,0,0,0,0,0,0,0,0,0,0,0,0,0,0,0,0,0,0,0,0,0,0,0,0,0,0,0,0,0,0,0,0,0,0,0,0,0,0,1.95,1.9501,0,1.9567,1.9568,1.9568,1.9562,1.9561,1.956,1.9559,1.9629,1.9631,1.9634,0,0,0,0,0,0,0,0,0,0,0,0,0,1.937,1.9372,1.95,1.9501,1.9502,1.9567,1.9568,1.9568,1.9563,1.9561,1.956,1.9559,1.9628,1.9631,1.9634,0,0,0,0,0,0,0,0,0,0,0,0,0,1.9431,1.9373,1.95,1.9507,1.9508,1.9566,1.9568,1.9569,1.9563,1.9561,1.956,1.9558,1.9627,1.9631,1.9635,1.9691,0,0,1.9648,1.9649,0,0,0,0,0,0,0,0,1.9427,1.9435,1.9505,1.9506,1.9508,1.9555,1.9547,1.961,1.9563,1.9542,1.9559,1.9558,1.9605,1.9611,1.9627,1.9695,1.9698,1.9648,1.9651,1.9652,1.9653,0,0,0,0,0,0,0,1.9423,1.9432,1.9527,1.9506,1.9508,1.9507,1.9514,1.9559,1.9581,1.9544,1.9543,1.9551,1.9606,1.9623,1.9629,1.9699,1.9648,1.9652,1.9654,1.9656,1.9818,1.9819,0,0,0,0,0,0,1.9417,1.9429,1.9524,1.9529,1.9463,1.9511,1.9518,1.9541,1.9581,1.9586,1.9553,1.9551,1.9617,1.9624,1.9631,1.9701,1.9652,1.9656,1.9659,1.9816,1.9818,1.982,0,0,0,0,0,0,1.9414,1.9426,1.9522,1.9479,1.9491,1.9514,1.954,1.9543,1.956,1.9588,1.9592,1.9566,1.9616,1.9625,1.9677,1.9703,1.9658,1.9662,1.9814,1.9817,1.9819,1.9841,0,0,0,0,0,0,1.9411,1.9425,1.9446,1.9479,1.9493,1.9566,1.9542,1.9546,1.9568,1.9566,1.9601,1.9606,1.9615,1.967,1.9681,1.9708,1.9665,1.9812,1.9815,1.9818,1.9838,1.9844,1.9849,0,0,0,0,0,1.9406,1.9449,1.9447,1.9458,1.952,1.9567,1.9575,1.9585,1.957,1.9592,1.9609,1.9604,1.9699,1.9676,1.9687,1.9717,1.981,1.9814,1.9818,1.9835,1.9843,1.9849,0,0,0,0,0,0,1.9418,1.9454,1.9451,1.9507,1.9534,1.9566,1.9594,1.9593,1.9625,1.9622,1.9633,1.9641,1.9694,1.971,1.9684,1.9774,1.9752,1.9759,1.9762,1.9769,1.9774,1.977,1.9669,0,0,0,0,0,1.9427,1.9462,1.9491,1.9538,1.9551,1.957,1.9591,1.9597,1.9625,1.9637,1.9658,1.9687,1.9723,1.9747,1.9781,1.984,1.9849,1.9866,1.9872,1.9876,1.9882,1.9916,1.9924,1.9833,1.9833,1.9833,0,0,1.9447,1.947,1.9492,1.9541,1.9562,1.9599,1.958,1.9619,1.9647,1.9643,1.9693,1.971,1.9743,1.9799,1.9824,1.9814,1.9909,1.9881,1.9885,1.9888,1.9921,1.9929,1.9937,1.9836,1.9835,1.9835,0,0,1.9501,1.9522,1.9563,1.9586,1.9619,1.9631,1.9641,1.9674,1.9685,1.9736,1.9734,1.9767,1.9829,1.9853,1.9873,1.9937,1.9935,1.9948,1.9978,2.0011,2.0018,2.0025,2.0049,2.0057,1.9954,1.9954,1.9954,0,1.9521,1.9576,1.9585,1.9625,1.9647,1.9645,1.9688,1.9709,1.9752,1.9768,1.9755,1.9834,1.9856,1.9918,1.9934,1.9949,1.9962,1.9945,2.0016,2.0023,2.0029,2.0052,2.0061,1.9956,1.9955,1.9955,1.9955,0,1.9599,1.9637,1.9667,1.9709,1.9734,1.9775,1.9791,1.9816,1.9819,1.9833,1.9886,1.9912,1.9952,1.9967,1.9971,2.0031,2.0023,2.0014,1.9992,2.0039,2.0061,2.007,1.9958,1.9957,1.9957,1.9956,0,0,1.9663,1.971,1.9721,1.974,1.9777,1.9807,1.9849,1.9888,1.991,1.994,1.9976,2.0028,2.002,2.0043,2.0049,2.0078,2.0129,2.0065,2.0066,2.0077,2.0198,2.0206,2.0216,2.0127,2.0129,2.013,2.0196,0,1.9722,1.9795,1.9805,1.987,1.9906,1.9905,1.9942,1.9969,1.9983,2.0017,2.0033,2.007,2.0056,2.007,2.0098,2.0117,2.0154,2.0112,2.0162,2.0163,2.0154,2.0227,2.0235,2.0296,2.0204,2.0206,2.0207,0,1.98,1.9833,1.9901,1.9935,1.995,1.9982,2.002,2.0052,2.0083,2.0092,2.0118,2.0121,2.0165,2.0141,2.0202,2.0174,2.0195,2.0207,2.021,2.0216,2.0189,2.0236,2.0315,2.0325,2.022,2.0219,2.0218,0,1.9842,1.9902,1.9952,1.9968,2.0008,2.0031,2.0048,2.0078,2.0102,2.0135,2.015,2.0188,2.0209,2.0239,2.0253,2.0234,2.0314,2.0291,2.0324,2.0323,2.0341,2.034,2.0426,2.0353,2.0353,2.0353,2.0352,0,1.9907,1.9949,1.9971,2.0001,2.0049,2.006,2.0108,2.0125,2.0151,2.0186,2.0187,2.0219,2.0235,2.027,2.0281,2.0331,2.034,2.0349,2.0352,2.035,2.0349,2.0365,2.0361,2.0355,2.0354,2.0354,2.0354,0,1.9961,1.9977,2.0031,2.0065,2.0074,2.0108,2.0137,2.0167,2.0181,2.0225,2.0236,2.0259,2.03,2.0317,2.0367,2.0375,2.0433,2.0432,2.0422,2.0423,2.0456,2.0453,2.0555,2.057,2.0486,2.0487,2.0488,0,2.0003,2.0035,2.0072,2.0095,2.0114,2.0151,2.0175,2.0187,2.0213,2.0251,2.0277,2.0318,2.0352,2.0419,2.0441,2.048,2.048,2.0513,2.0486,2.0483,2.0482,2.0481,2.0485,2.0519,2.052,2.052,2.0521,0,2.0074,2.0081,2.0115,2.0153,2.0182,2.0213,2.0242,2.0261,2.0278,2.0307,2.0349,2.0376,2.0428,2.0469,2.051,2.0529,2.0528,2.0529,2.0539,2.0538,2.0532,2.0537,2.0437,2.0527,2.0526,2.0526,2.0525,2.0525,2.0125,2.0154,2.0185,2.0224,2.0247,2.0275,2.0305,2.0324,2.0359,2.0402,2.0408,2.0454,2.0485,2.054,2.056,2.0597,2.0588,2.0602,2.0606,2.061,2.0613,2.0525,2.0604,2.0604,2.0604,2.0604,2.0604,0,2.0198,2.0217,2.0253,2.0295,2.0326,2.0322,2.0355,2.0381,2.0421,2.045,2.0484,2.0533,2.0574,2.0599,2.064,2.0664,2.0665,2.0675,2.0674,2.0679,2.0617,2.0605,2.0674,2.0674,2.0674,2.0674,2.0674,2.0674,2.0239,2.0289,2.03,2.0362,2.0382,2.0426,2.0446,2.0472,2.0496,2.0551,2.0584,2.06,2.0628,2.0671,2.0709,2.0715,2.0731,2.0741,2.0747,2.069,2.0683,2.0676,2.0665,2.0744,2.0744,2.0806,2.0806,2.0807]},{"header":{"parameterUnit":"m.s-1","parameterCategory":1,"la1":30.2991,"la2":30.254,"lo1":-89.0895,"lo2":-89.0444,"dy":0.0017,"dx":0.0017,"nx":28,"ny":28,"refTime":"2025-05-30T03:00:00:Z","depth":0,"parameterNumber":3,"parameterNumberName":"V-component_of_WINDS"},"data":[0,0,0,0,0,0,0,0,0,0,0,0,0,0,0,0,0,0,0,0,0,0,0,0,0,0,0,0,0,0,0,0,0,0,0,0,0,0,0,0,0,0,0,0,0,0,0,0,0,0,0,0,0,0,0,0,0,0,-0.7155,-0.7156,0,-0.7262,-0.7263,-0.7264,-0.7291,-0.7291,-0.729,-0.7289,-0.7401,-0.7404,-0.7408,0,0,0,0,0,0,0,0,0,0,0,0,0,-0.6975,-0.6978,-0.7155,-0.7156,-0.7157,-0.7262,-0.7263,-0.7265,-0.7292,-0.7291,-0.729,-0.7289,-0.7399,-0.7404,-0.7408,0,0,0,0,0,0,0,0,0,0,0,0,0,-0.7065,-0.6979,-0.7154,-0.7183,-0.7187,-0.7262,-0.7263,-0.7265,-0.7292,-0.7291,-0.729,-0.7289,-0.7398,-0.7403,-0.7409,-0.7463,0,0,-0.7425,-0.7427,0,0,0,0,0,0,0,0,-0.706,-0.7072,-0.7178,-0.7181,-0.7186,-0.7262,-0.7241,-0.7331,-0.7292,-0.7252,-0.7289,-0.7288,-0.7356,-0.7364,-0.7387,-0.7468,-0.7473,-0.7426,-0.7429,-0.7431,-0.7433,0,0,0,0,0,0,0,-0.7054,-0.7067,-0.7197,-0.7179,-0.7184,-0.7192,-0.7203,-0.7258,-0.7308,-0.7255,-0.7258,-0.727,-0.7357,-0.7381,-0.739,-0.7474,-0.7425,-0.743,-0.7434,-0.7436,-0.7607,-0.7608,0,0,0,0,0,0,-0.7042,-0.7062,-0.7194,-0.72,-0.7119,-0.7196,-0.7209,-0.7239,-0.7308,-0.7317,-0.7271,-0.7271,-0.7373,-0.7383,-0.7394,-0.7462,-0.7431,-0.7436,-0.7439,-0.7605,-0.7607,-0.7608,0,0,0,0,0,0,-0.7038,-0.7054,-0.7189,-0.7132,-0.715,-0.72,-0.7233,-0.7241,-0.7265,-0.7319,-0.7328,-0.7286,-0.7372,-0.7386,-0.7446,-0.7466,-0.7439,-0.7444,-0.7604,-0.7606,-0.7608,-0.7599,0,0,0,0,0,0,-0.7033,-0.7052,-0.7072,-0.7132,-0.7153,-0.7239,-0.7235,-0.7244,-0.7274,-0.7276,-0.7336,-0.7345,-0.7373,-0.7437,-0.7451,-0.7473,-0.7448,-0.7602,-0.7605,-0.7607,-0.7598,-0.7601,-0.7603,0,0,0,0,0,-0.7026,-0.7066,-0.7073,-0.7089,-0.7179,-0.724,-0.7252,-0.7282,-0.7276,-0.7297,-0.7332,-0.7343,-0.7462,-0.7443,-0.7459,-0.7483,-0.7601,-0.7604,-0.7607,-0.7597,-0.76,-0.7603,0,0,0,0,0,0,-0.7008,-0.7074,-0.7083,-0.7143,-0.7185,-0.7244,-0.7272,-0.7285,-0.7331,-0.733,-0.7366,-0.738,-0.7437,-0.7466,-0.7444,-0.754,-0.7532,-0.7538,-0.7518,-0.7522,-0.7525,-0.7516,-0.7452,0,0,0,0,0,-0.701,-0.7054,-0.711,-0.7157,-0.7178,-0.7221,-0.7249,-0.7269,-0.7315,-0.7333,-0.7372,-0.7417,-0.7465,-0.7495,-0.7542,-0.7602,-0.7616,-0.7627,-0.7629,-0.7631,-0.7636,-0.7671,-0.7677,-0.7618,-0.7618,-0.7618,0,0,-0.7016,-0.7058,-0.7083,-0.7154,-0.719,-0.7234,-0.7236,-0.7283,-0.7317,-0.734,-0.7399,-0.7429,-0.7482,-0.7542,-0.7571,-0.7568,-0.7656,-0.7635,-0.7636,-0.764,-0.7675,-0.7681,-0.7686,-0.762,-0.7619,-0.7619,0,0,-0.7051,-0.7086,-0.713,-0.7166,-0.7219,-0.7248,-0.7258,-0.7316,-0.7337,-0.7396,-0.7415,-0.7456,-0.7537,-0.7574,-0.7603,-0.7653,-0.7665,-0.7667,-0.768,-0.7714,-0.7719,-0.7723,-0.7742,-0.7748,-0.7672,-0.7672,-0.7672,0,-0.7052,-0.7119,-0.7151,-0.7197,-0.7229,-0.7252,-0.7297,-0.733,-0.7396,-0.7418,-0.7414,-0.7517,-0.7553,-0.7623,-0.7635,-0.7658,-0.7672,-0.766,-0.7716,-0.772,-0.7725,-0.7743,-0.775,-0.7672,-0.7672,-0.7672,-0.7672,0,-0.7118,-0.7165,-0.7194,-0.7257,-0.7292,-0.7337,-0.7377,-0.7408,-0.7426,-0.7455,-0.7516,-0.7561,-0.7618,-0.7636,-0.7653,-0.7709,-0.7706,-0.7708,-0.7701,-0.773,-0.7747,-0.7755,-0.7672,-0.7672,-0.7672,-0.7672,0,0,-0.7142,-0.7223,-0.7234,-0.7263,-0.7325,-0.7362,-0.7409,-0.7464,-0.7491,-0.7536,-0.7577,-0.7646,-0.7649,-0.7682,-0.7704,-0.7734,-0.7771,-0.7733,-0.7735,-0.7739,-0.7836,-0.7834,-0.7841,-0.778,-0.7781,-0.7782,-0.7832,0,-0.7184,-0.7269,-0.7299,-0.7369,-0.7413,-0.7437,-0.7478,-0.7521,-0.755,-0.7592,-0.7625,-0.7673,-0.7673,-0.7694,-0.7724,-0.776,-0.7791,-0.7757,-0.7819,-0.7821,-0.7805,-0.785,-0.7848,-0.7892,-0.7839,-0.784,-0.7841,0,-0.7244,-0.729,-0.7364,-0.7421,-0.7441,-0.7477,-0.7531,-0.7571,-0.7621,-0.764,-0.7678,-0.7698,-0.775,-0.7739,-0.7811,-0.7787,-0.7814,-0.7836,-0.7839,-0.7845,-0.7833,-0.7859,-0.7907,-0.7914,-0.7852,-0.7851,-0.785,0,-0.7255,-0.7336,-0.7391,-0.7415,-0.7483,-0.7508,-0.7538,-0.7586,-0.7618,-0.7665,-0.7686,-0.7739,-0.7768,-0.7809,-0.7843,-0.7832,-0.7912,-0.7905,-0.793,-0.793,-0.7946,-0.7944,-0.8,-0.7963,-0.7963,-0.7963,-0.7963,0,-0.7299,-0.7343,-0.7397,-0.743,-0.7481,-0.7517,-0.7567,-0.7598,-0.7641,-0.7682,-0.7706,-0.7744,-0.7787,-0.7831,-0.7858,-0.7914,-0.7927,-0.7945,-0.7951,-0.7943,-0.794,-0.7961,-0.7959,-0.7965,-0.7965,-0.7964,-0.7964,0,-0.7319,-0.7357,-0.7418,-0.7478,-0.7494,-0.7529,-0.758,-0.7614,-0.7645,-0.7697,-0.7711,-0.7759,-0.7812,-0.7851,-0.792,-0.7938,-0.7998,-0.8005,-0.7981,-0.7985,-0.8009,-0.8006,-0.8079,-0.8091,-0.8046,-0.8046,-0.8047,0,-0.7344,-0.7379,-0.7443,-0.7472,-0.7501,-0.7547,-0.758,-0.7617,-0.765,-0.771,-0.7737,-0.7792,-0.7837,-0.7922,-0.7963,-0.8016,-0.8025,-0.8047,-0.8033,-0.8023,-0.8026,-0.8023,-0.8027,-0.8049,-0.8049,-0.8049,-0.8049,0,-0.7386,-0.7403,-0.7448,-0.7501,-0.7539,-0.7582,-0.7626,-0.7649,-0.7693,-0.773,-0.7784,-0.782,-0.789,-0.7945,-0.8002,-0.8033,-0.8049,-0.8053,-0.8062,-0.8054,-0.8039,-0.8048,-0.7987,-0.8052,-0.8051,-0.8051,-0.8051,-0.8051,-0.741,-0.7442,-0.7492,-0.7542,-0.7579,-0.762,-0.7655,-0.769,-0.7736,-0.7796,-0.7816,-0.7872,-0.7922,-0.8001,-0.8033,-0.8079,-0.8078,-0.8091,-0.8094,-0.8097,-0.8096,-0.8031,-0.8089,-0.8089,-0.8089,-0.8089,-0.8089,0,-0.7452,-0.7486,-0.7532,-0.7592,-0.7632,-0.7644,-0.7693,-0.7726,-0.7775,-0.782,-0.7865,-0.7929,-0.7982,-0.8028,-0.8084,-0.8111,-0.812,-0.8125,-0.8123,-0.813,-0.8094,-0.8081,-0.8117,-0.8117,-0.8117,-0.8117,-0.8117,-0.8117,-0.7479,-0.7535,-0.7558,-0.7633,-0.7666,-0.7722,-0.7749,-0.7787,-0.7823,-0.7893,-0.7937,-0.7967,-0.8013,-0.8072,-0.8122,-0.8135,-0.8154,-0.8157,-0.8171,-0.8136,-0.8133,-0.813,-0.8118,-0.8161,-0.8161,-0.8204,-0.8204,-0.8205]}]]